[[{"header":{"parameterUnit":"m.s-1","parameterCategory":1,"la1":30.2991,"la2":30.254,"lo1":-89.0895,"lo2":-89.0444,"dy":0.0017,"dx":0.0017,"nx":28,"ny":28,"refTime":"2026-02-08T03:00:00:Z","depth":0,"parameterNumber":2,"parameterNumberName":"U-component_of_WINDS"},"data":[0,0,0,0,0,0,0,0,0,0,0,0,0,0,0,0,0,0,0,0,0,0,0,0,0,0,0,0,0,0,0,0,0,0,0,0,0,0,0,0,0,0,0,0,0,0,0,0,0,0,0,0,0,0,0,0,0,0,1.4686,1.4686,0,1.4728,1.4728,1.4729,1.4695,1.4693,1.4692,1.469,1.4737,1.4739,1.4742,0,0,0,0,0,0,0,0,0,0,0,0,0,1.4581,1.4583,1.4686,1.4686,1.4687,1.4728,1.4728,1.4729,1.4695,1.4693,1.4691,1.469,1.4736,1.4739,1.4742,0,0,0,0,0,0,0,0,0,0,0,0,0,1.4625,1.4583,1.4686,1.4675,1.4674,1.4728,1.4728,1.4729,1.4695,1.4693,1.4691,1.4689,1.4735,1.4739,1.4742,1.481,0,0,1.4754,1.4756,0,0,0,0,0,0,0,0,1.4622,1.4629,1.4676,1.4676,1.4675,1.4704,1.4708,1.4756,1.4696,1.4687,1.469,1.4688,1.4728,1.4732,1.4745,1.4812,1.4814,1.4755,1.4757,1.4759,1.476,0,0,0,0,0,0,0,1.4619,1.4627,1.4703,1.4677,1.4676,1.4669,1.4673,1.4717,1.4719,1.4688,1.4685,1.4691,1.4727,1.4741,1.4746,1.4815,1.4754,1.4758,1.476,1.4762,1.4942,1.4944,0,0,0,0,0,0,1.4617,1.4625,1.4701,1.4704,1.4643,1.4673,1.4677,1.4697,1.4719,1.472,1.4693,1.4689,1.4735,1.4741,1.4747,1.4828,1.4759,1.4762,1.4764,1.494,1.4943,1.4945,0,0,0,0,0,0,1.4615,1.4624,1.4699,1.4664,1.4673,1.4677,1.4699,1.4699,1.4713,1.4722,1.4723,1.4706,1.4734,1.4742,1.4795,1.4829,1.4764,1.4767,1.4937,1.4941,1.4944,1.4991,0,0,0,0,0,0,1.4612,1.4623,1.4648,1.4664,1.4675,1.4745,1.4701,1.4701,1.4719,1.4715,1.4735,1.4736,1.4733,1.4789,1.4799,1.4834,1.4771,1.4934,1.4938,1.4943,1.4986,1.4996,1.5004,0,0,0,0,0,1.4608,1.466,1.4649,1.4659,1.4705,1.4747,1.4753,1.4747,1.4722,1.4747,1.4754,1.4736,1.4825,1.4795,1.4805,1.4842,1.4931,1.4937,1.4942,1.4982,1.4994,1.5004,0,0,0,0,0,0,1.4648,1.4662,1.465,1.4708,1.4727,1.4741,1.4773,1.4759,1.4786,1.4781,1.4773,1.4778,1.4834,1.4844,1.4811,1.491,1.4874,1.4882,1.4901,1.4912,1.4921,1.4917,1.4774,0,0,0,0,0,1.4663,1.4695,1.4706,1.4756,1.4766,1.4768,1.4786,1.478,1.4799,1.4807,1.4817,1.4838,1.4871,1.4892,1.4923,1.4988,1.4993,1.5019,1.5028,1.5035,1.5042,1.5078,1.509,1.4963,1.4963,1.4963,0,0,1.4696,1.4707,1.4728,1.4765,1.4778,1.4813,1.4775,1.4813,1.4838,1.4813,1.4864,1.4873,1.4895,1.4955,1.4982,1.4965,1.5078,1.5042,1.5048,1.505,1.5085,1.5097,1.5108,1.4967,1.4966,1.4966,0,0,1.4772,1.4783,1.4827,1.4842,1.4863,1.4864,1.4875,1.4892,1.4896,1.4947,1.4929,1.4961,1.5017,1.5034,1.505,1.5136,1.5121,1.5146,1.5192,1.5228,1.5238,1.5247,1.5277,1.5288,1.5153,1.5153,1.5153,0,1.4809,1.4859,1.4851,1.4891,1.4908,1.4887,1.4932,1.4947,1.4978,1.4991,1.4971,1.5042,1.5055,1.512,1.5141,1.5154,1.5167,1.5143,1.5237,1.5245,1.5254,1.5283,1.5295,1.5156,1.5156,1.5156,1.5155,0,1.4904,1.4939,1.4973,1.5002,1.5023,1.5065,1.5066,1.5089,1.5082,1.5086,1.5139,1.5155,1.5189,1.5204,1.5198,1.5269,1.5257,1.5237,1.5201,1.5269,1.5296,1.5307,1.516,1.5159,1.5158,1.5158,0,0,1.5004,1.503,1.5042,1.5056,1.5079,1.5107,1.5149,1.5182,1.5202,1.5225,1.5261,1.531,1.5292,1.531,1.5306,1.5338,1.5406,1.5314,1.5315,1.533,1.5485,1.5499,1.5512,1.5396,1.5398,1.54,1.5483,0,1.5081,1.5152,1.5148,1.5217,1.525,1.5232,1.5269,1.5288,1.5294,1.5325,1.5332,1.5366,1.534,1.5351,1.5382,1.5391,1.5436,1.5385,1.543,1.5432,1.5424,1.5526,1.5541,1.5618,1.5494,1.5496,1.5497,0,1.5179,1.5204,1.5276,1.5295,1.5309,1.5342,1.5373,1.5402,1.5424,1.5427,1.5448,1.544,1.5484,1.5449,1.5511,1.5476,1.5495,1.5503,1.5506,1.5508,1.5468,1.5532,1.5643,1.5654,1.5514,1.5513,1.5511,0,1.5244,1.5297,1.5347,1.5359,1.5383,1.5407,1.5419,1.5439,1.5459,1.5487,1.55,1.5533,1.5551,1.5577,1.5579,1.5552,1.5642,1.5606,1.5646,1.5646,1.5664,1.5662,1.5779,1.5678,1.5678,1.5678,1.5677,0,1.5329,1.5374,1.5376,1.5407,1.5457,1.5453,1.5503,1.5513,1.5531,1.5564,1.5552,1.5584,1.5584,1.5617,1.5619,1.567,1.5679,1.5683,1.5682,1.5683,1.5683,1.5694,1.5689,1.5681,1.568,1.5679,1.5679,0,1.541,1.5413,1.5466,1.5485,1.5491,1.5527,1.5544,1.5574,1.558,1.5622,1.5632,1.5642,1.568,1.5684,1.573,1.5731,1.5793,1.5788,1.5785,1.5784,1.5823,1.5819,1.595,1.5967,1.5856,1.5858,1.5858,0,1.5463,1.5497,1.552,1.5541,1.5554,1.5588,1.5609,1.5608,1.563,1.566,1.5687,1.5724,1.5753,1.5816,1.5828,1.5863,1.5857,1.5901,1.5862,1.5863,1.5858,1.5855,1.5859,1.5908,1.5909,1.591,1.5911,0,1.5558,1.5558,1.5588,1.562,1.5645,1.567,1.5693,1.5712,1.5714,1.5741,1.5779,1.5802,1.5849,1.5886,1.5921,1.5935,1.5924,1.5924,1.5935,1.5935,1.5932,1.5933,1.5804,1.592,1.5919,1.5918,1.5918,1.5918,1.5626,1.5655,1.5676,1.5711,1.5729,1.5751,1.5781,1.5791,1.5823,1.5859,1.5858,1.5901,1.5925,1.5971,1.5987,1.6022,1.6007,1.6023,1.6027,1.6031,1.6035,1.5927,1.6029,1.6028,1.6028,1.6028,1.6028,0,1.5719,1.5732,1.5764,1.5797,1.5825,1.5813,1.5839,1.5863,1.5901,1.5924,1.5954,1.5999,1.6036,1.6052,1.6089,1.6114,1.611,1.6123,1.6121,1.6124,1.6046,1.6032,1.6126,1.6126,1.6126,1.6126,1.6126,1.6126,1.577,1.582,1.5824,1.5883,1.5896,1.5938,1.5954,1.5975,1.5994,1.6045,1.6076,1.6085,1.6106,1.6145,1.6179,1.6183,1.6196,1.6212,1.6214,1.614,1.613,1.612,1.6107,1.6215,1.6216,1.6289,1.629,1.629]},{"header":{"parameterUnit":"m.s-1","parameterCategory":1,"la1":30.2991,"la2":30.254,"lo1":-89.0895,"lo2":-89.0444,"dy":0.0017,"dx":0.0017,"nx":28,"ny":28,"refTime":"2026-02-08T03:00:00:Z","depth":0,"parameterNumber":3,"parameterNumberName":"V-component_of_WINDS"},"data":[0,0,0,0,0,0,0,0,0,0,0,0,0,0,0,0,0,0,0,0,0,0,0,0,0,0,0,0,0,0,0,0,0,0,0,0,0,0,0,0,0,0,0,0,0,0,0,0,0,0,0,0,0,0,0,0,0,0,1.071,1.071,0,1.076,1.0761,1.0761,1.0786,1.0786,1.0786,1.0786,1.0836,1.0837,1.0838,0,0,0,0,0,0,0,0,0,0,0,0,0,1.0634,1.0635,1.071,1.071,1.0711,1.076,1.0761,1.0761,1.0786,1.0786,1.0786,1.0786,1.0835,1.0837,1.0838,0,0,0,0,0,0,0,0,0,0,0,0,0,1.0674,1.0636,1.071,1.0729,1.0731,1.076,1.0761,1.0761,1.0786,1.0786,1.0786,1.0786,1.0835,1.0837,1.0839,1.0851,0,0,1.0845,1.0846,0,0,0,0,0,0,0,0,1.0671,1.0676,1.0726,1.0728,1.073,1.0767,1.0752,1.0791,1.0786,1.0765,1.0786,1.0786,1.0813,1.0816,1.0826,1.0853,1.0856,1.0845,1.0846,1.0847,1.0848,0,0,0,0,0,0,0,1.0669,1.0674,1.073,1.0726,1.0729,1.0735,1.0741,1.076,1.0788,1.0767,1.0769,1.0774,1.0814,1.0824,1.0827,1.0856,1.0845,1.0847,1.0848,1.0849,1.0897,1.0897,0,0,0,0,0,0,1.0663,1.0672,1.0728,1.0731,1.07,1.0736,1.0743,1.0755,1.0788,1.0793,1.0774,1.0775,1.082,1.0825,1.0829,1.0846,1.0847,1.0849,1.085,1.0897,1.0897,1.0897,0,0,0,0,0,0,1.0661,1.0668,1.0726,1.0702,1.071,1.0738,1.0751,1.0756,1.0766,1.0794,1.0799,1.0779,1.0821,1.0826,1.0846,1.0848,1.085,1.0852,1.0897,1.0897,1.0897,1.088,0,0,0,0,0,0,1.0659,1.0667,1.0672,1.0702,1.0711,1.0742,1.0751,1.0757,1.0769,1.0771,1.08,1.0804,1.0821,1.0842,1.0848,1.0851,1.0853,1.0896,1.0897,1.0897,1.088,1.0879,1.0878,0,0,0,0,0,1.0656,1.0665,1.0672,1.0679,1.0718,1.0742,1.0747,1.0766,1.077,1.0775,1.0793,1.0804,1.0847,1.0844,1.085,1.0854,1.0896,1.0897,1.0897,1.088,1.0879,1.0878,0,0,0,0,0,0,1.0634,1.0669,1.0678,1.0697,1.0716,1.0746,1.0753,1.0764,1.0783,1.0784,1.0807,1.0813,1.083,1.0844,1.084,1.0868,1.0873,1.0874,1.0858,1.0857,1.0856,1.0853,1.0855,0,0,0,0,0,1.0631,1.0648,1.0678,1.0691,1.0701,1.0725,1.0736,1.075,1.0771,1.0779,1.0798,1.0818,1.0836,1.0847,1.0866,1.0882,1.0889,1.0888,1.0887,1.0886,1.0887,1.0897,1.0897,1.0897,1.0897,1.0897,0,0,1.0626,1.0647,1.0656,1.0688,1.0704,1.0721,1.0732,1.0749,1.0761,1.0781,1.0801,1.0816,1.0839,1.0857,1.0866,1.0869,1.0888,1.0886,1.0885,1.0887,1.0897,1.0897,1.0897,1.0898,1.0897,1.0897,0,0,1.0625,1.0642,1.0656,1.0673,1.0698,1.0714,1.0718,1.0746,1.0757,1.0777,1.0792,1.0807,1.0838,1.0854,1.0866,1.0871,1.0882,1.0877,1.0872,1.0881,1.0881,1.0881,1.0883,1.0884,1.0877,1.0877,1.0877,0,1.0615,1.064,1.0661,1.0678,1.0691,1.071,1.0724,1.0739,1.0769,1.0777,1.0781,1.082,1.0837,1.0859,1.086,1.0869,1.0874,1.0873,1.088,1.088,1.088,1.0882,1.0883,1.0876,1.0877,1.0877,1.0877,0,1.0627,1.0645,1.0652,1.0681,1.0695,1.071,1.0733,1.0745,1.0757,1.0773,1.0793,1.0814,1.0837,1.0843,1.0855,1.0867,1.0869,1.0875,1.0881,1.0879,1.0881,1.0882,1.0875,1.0876,1.0876,1.0876,0,0,1.0613,1.0653,1.0656,1.067,1.0699,1.0713,1.0729,1.0752,1.0761,1.0781,1.0795,1.082,1.0827,1.0841,1.0855,1.0863,1.0866,1.0869,1.087,1.0868,1.0881,1.0876,1.0876,1.0873,1.0873,1.0873,1.0879,0,1.0616,1.0645,1.0665,1.0686,1.0703,1.0722,1.0735,1.0755,1.077,1.0786,1.0803,1.0821,1.0828,1.0837,1.0846,1.0863,1.0869,1.0863,1.0886,1.0886,1.0879,1.0877,1.0872,1.0876,1.088,1.088,1.088,0,1.0623,1.0643,1.0666,1.0695,1.0702,1.0714,1.0737,1.0752,1.0775,1.0785,1.0801,1.0815,1.0832,1.0836,1.086,1.0855,1.0866,1.0876,1.0877,1.0879,1.0883,1.088,1.0878,1.0878,1.0882,1.0882,1.0882,0,1.061,1.0643,1.0662,1.0672,1.0706,1.0714,1.0728,1.075,1.0763,1.0783,1.0791,1.0812,1.0824,1.084,1.0859,1.086,1.0881,1.0887,1.089,1.089,1.0894,1.0893,1.0893,1.09,1.09,1.09,1.09,0,1.0611,1.0625,1.0656,1.0668,1.0684,1.0706,1.0721,1.0736,1.0756,1.0771,1.0788,1.0801,1.0826,1.0842,1.0857,1.0875,1.088,1.0888,1.0892,1.0887,1.0886,1.0894,1.0894,1.0901,1.0901,1.09,1.09,0,1.06,1.0622,1.0643,1.0673,1.0681,1.0691,1.0717,1.0728,1.0745,1.0763,1.0768,1.0794,1.0814,1.0835,1.0861,1.0872,1.0889,1.0894,1.0881,1.0883,1.0886,1.0885,1.0891,1.0893,1.0898,1.0898,1.0898,0,1.0599,1.061,1.0642,1.0653,1.0667,1.0685,1.0698,1.072,1.0733,1.076,1.0768,1.0789,1.0808,1.0838,1.0859,1.088,1.0886,1.0886,1.0889,1.0883,1.0886,1.0885,1.0886,1.0885,1.0885,1.0885,1.0885,0,1.0596,1.0606,1.0625,1.0647,1.0663,1.0681,1.07,1.0709,1.0734,1.0748,1.0769,1.0783,1.0811,1.0832,1.0855,1.0869,1.0881,1.0884,1.0886,1.0881,1.0873,1.0877,1.0879,1.0884,1.0884,1.0884,1.0884,1.0884,1.059,1.0601,1.0625,1.0645,1.0662,1.068,1.0692,1.071,1.0728,1.0753,1.0765,1.0786,1.0808,1.0841,1.0855,1.0871,1.0875,1.0877,1.0878,1.0879,1.0877,1.087,1.0875,1.0876,1.0876,1.0876,1.0876,0,1.0587,1.0604,1.0622,1.0649,1.0665,1.0675,1.0697,1.071,1.0728,1.0748,1.0766,1.079,1.0811,1.0833,1.0855,1.0864,1.087,1.0869,1.0869,1.0872,1.0873,1.0869,1.0864,1.0864,1.0864,1.0864,1.0864,1.0864,1.0588,1.0607,1.062,1.0648,1.0664,1.0685,1.0697,1.0713,1.0729,1.0756,1.0773,1.0788,1.0809,1.0832,1.0852,1.0858,1.0865,1.0862,1.087,1.0871,1.0872,1.0872,1.0869,1.0864,1.0864,1.0868,1.0868,1.0868]}]]